[[{"header":{"parameterUnit":"m.s-1","parameterCategory":1,"la1":30.2991,"la2":30.254,"lo1":-89.0895,"lo2":-89.0444,"dy":0.0017,"dx":0.0017,"nx":28,"ny":28,"refTime":"2023-03-16T21:00:00:Z","depth":0,"parameterNumber":2,"parameterNumberName":"U-component_of_WINDS"},"data":[0,0,0,0,0,0,0,0,0,0,0,0,0,0,0,0,0,0,0,0,0,0,0,0,0,0,0,0,0,0,0,0,0,0,0,0,0,0,0,0,0,0,0,0,0,0,0,0,0,0,0,0,0,0,0,0,0,0,0.5676,0.5676,0,0.5719,0.5719,0.572,0.5712,0.5711,0.5711,0.571,0.5753,0.5755,0.5757,0,0,0,0,0,0,0,0,0,0,0,0,0,0.5586,0.5588,0.5676,0.5677,0.5677,0.5719,0.5719,0.572,0.5712,0.5711,0.5711,0.571,0.5752,0.5755,0.5757,0,0,0,0,0,0,0,0,0,0,0,0,0,0.5627,0.5589,0.5676,0.5678,0.5679,0.5719,0.5719,0.572,0.5713,0.5711,0.571,0.5709,0.5752,0.5754,0.5757,0.5797,0,0,0.5765,0.5767,0,0,0,0,0,0,0,0,0.5625,0.563,0.5677,0.5678,0.5679,0.5709,0.5704,0.5746,0.5713,0.57,0.571,0.5709,0.5739,0.5743,0.5753,0.5799,0.5801,0.5766,0.5767,0.5769,0.5769,0,0,0,0,0,0,0,0.5622,0.5628,0.5693,0.5678,0.5679,0.5677,0.5681,0.5711,0.5725,0.5701,0.57,0.5706,0.5739,0.5751,0.5754,0.5801,0.5766,0.5768,0.577,0.5771,0.5881,0.5882,0,0,0,0,0,0,0.5618,0.5626,0.5692,0.5694,0.5649,0.5679,0.5684,0.5701,0.5725,0.5728,0.5707,0.5705,0.5747,0.5751,0.5756,0.5804,0.5769,0.5771,0.5773,0.588,0.5881,0.5883,0,0,0,0,0,0,0.5616,0.5624,0.569,0.566,0.5668,0.5682,0.57,0.5702,0.5713,0.5729,0.5732,0.5716,0.5746,0.5752,0.5787,0.5805,0.5772,0.5775,0.5878,0.588,0.5882,0.59,0,0,0,0,0,0,0.5614,0.5624,0.5639,0.566,0.567,0.572,0.5701,0.5704,0.5718,0.5717,0.5738,0.5741,0.5745,0.5783,0.5789,0.5808,0.5777,0.5877,0.5879,0.5881,0.5898,0.5903,0.5906,0,0,0,0,0,0.5611,0.5642,0.564,0.5648,0.569,0.5721,0.5727,0.5732,0.572,0.5735,0.5745,0.574,0.5802,0.5786,0.5794,0.5814,0.5876,0.5879,0.5881,0.5896,0.5902,0.5906,0,0,0,0,0,0,0.5622,0.5645,0.5643,0.5682,0.57,0.572,0.574,0.5737,0.5758,0.5756,0.5761,0.5766,0.5801,0.5811,0.5793,0.5854,0.5837,0.5842,0.5846,0.5851,0.5855,0.5852,0.5779,0,0,0,0,0,0.563,0.5654,0.5672,0.5705,0.5714,0.5726,0.574,0.5742,0.576,0.5768,0.578,0.5798,0.5822,0.5837,0.5859,0.5899,0.5904,0.5917,0.5921,0.5925,0.5928,0.595,0.5956,0.5892,0.5892,0.5892,0,0,0.5645,0.566,0.5675,0.5708,0.5722,0.5747,0.5732,0.5759,0.5777,0.5772,0.5805,0.5815,0.5835,0.5873,0.589,0.5882,0.5947,0.5928,0.5931,0.5933,0.5954,0.596,0.5965,0.5894,0.5894,0.5893,0,0,0.5685,0.5699,0.5728,0.5743,0.5764,0.5771,0.5778,0.5799,0.5805,0.5839,0.5836,0.5857,0.5898,0.5912,0.5925,0.5971,0.5967,0.5978,0.5999,0.6021,0.6026,0.603,0.6046,0.6052,0.5982,0.5982,0.5982,0,0.57,0.5738,0.5743,0.5771,0.5785,0.5782,0.5811,0.5825,0.5852,0.5862,0.5853,0.5904,0.5917,0.5958,0.5969,0.5979,0.5987,0.5975,0.6025,0.6029,0.6034,0.6049,0.6055,0.5983,0.5983,0.5983,0.5982,0,0.5756,0.5783,0.5803,0.5831,0.5848,0.5876,0.5885,0.5901,0.5902,0.591,0.5945,0.596,0.5986,0.5996,0.5997,0.6037,0.6031,0.6024,0.6007,0.6041,0.6055,0.6061,0.5985,0.5984,0.5984,0.5983,0,0,0.5805,0.5835,0.5842,0.5855,0.5878,0.5898,0.5926,0.5952,0.5966,0.5985,0.6008,0.6043,0.6035,0.605,0.6052,0.6071,0.6106,0.6061,0.6061,0.6069,0.6151,0.6157,0.6164,0.6104,0.6105,0.6106,0.6149,0,0.5847,0.5897,0.5902,0.5946,0.5971,0.5968,0.5992,0.6009,0.6017,0.6039,0.6048,0.6072,0.6061,0.6069,0.6088,0.6098,0.6123,0.6095,0.6125,0.6126,0.612,0.6171,0.6178,0.6218,0.6155,0.6156,0.6157,0,0.5903,0.5924,0.5971,0.5991,0.6002,0.6023,0.6047,0.6068,0.6087,0.6092,0.6108,0.6108,0.6136,0.6119,0.6158,0.6139,0.6152,0.6159,0.616,0.6163,0.6143,0.6176,0.6231,0.6237,0.6166,0.6165,0.6165,0,0.5933,0.5973,0.6007,0.6017,0.6042,0.6057,0.6068,0.6086,0.6101,0.6122,0.6132,0.6155,0.6168,0.6186,0.6193,0.6179,0.6232,0.6215,0.6236,0.6236,0.6247,0.6246,0.6305,0.6256,0.6255,0.6255,0.6255,0,0.5979,0.6008,0.6021,0.6041,0.6073,0.6079,0.611,0.6121,0.6137,0.6159,0.6158,0.6178,0.6186,0.6207,0.6213,0.6244,0.625,0.6254,0.6255,0.6255,0.6254,0.6263,0.626,0.6257,0.6257,0.6256,0.6256,0,0.6018,0.6028,0.6064,0.6085,0.6091,0.6113,0.6131,0.615,0.6159,0.6187,0.6194,0.6206,0.6232,0.624,0.6271,0.6274,0.6311,0.631,0.6305,0.6305,0.6326,0.6324,0.6393,0.6402,0.6346,0.6347,0.6347,0,0.6047,0.6069,0.6093,0.6108,0.6119,0.6143,0.6159,0.6165,0.6182,0.6205,0.6222,0.6247,0.6268,0.6309,0.6321,0.6345,0.6344,0.6366,0.6347,0.6345,0.6344,0.6342,0.6344,0.637,0.637,0.6371,0.6371,0,0.6097,0.6101,0.6123,0.6148,0.6167,0.6186,0.6205,0.6217,0.6226,0.6244,0.6271,0.6287,0.6319,0.6344,0.6368,0.6379,0.6377,0.6377,0.6383,0.6382,0.6379,0.6381,0.6315,0.6375,0.6375,0.6375,0.6374,0.6374,0.6132,0.6151,0.6171,0.6196,0.6211,0.6229,0.6248,0.6259,0.6281,0.6308,0.6311,0.6339,0.6358,0.639,0.6402,0.6424,0.6418,0.6427,0.6429,0.6431,0.6433,0.6375,0.6429,0.6429,0.6429,0.6428,0.6428,0,0.6181,0.6194,0.6217,0.6244,0.6264,0.626,0.6281,0.6297,0.6323,0.6341,0.6361,0.6392,0.6416,0.643,0.6455,0.647,0.6469,0.6476,0.6475,0.6477,0.6437,0.6429,0.6476,0.6476,0.6476,0.6476,0.6476,0.6476,0.6209,0.6242,0.6249,0.6289,0.6301,0.633,0.6342,0.6358,0.6372,0.6407,0.6427,0.6436,0.6453,0.6478,0.6501,0.6504,0.6513,0.652,0.6523,0.6485,0.648,0.6476,0.6468,0.6522,0.6522,0.6562,0.6562,0.6562]},{"header":{"parameterUnit":"m.s-1","parameterCategory":1,"la1":30.2991,"la2":30.254,"lo1":-89.0895,"lo2":-89.0444,"dy":0.0017,"dx":0.0017,"nx":28,"ny":28,"refTime":"2023-03-16T21:00:00:Z","depth":0,"parameterNumber":3,"parameterNumberName":"V-component_of_WINDS"},"data":[0,0,0,0,0,0,0,0,0,0,0,0,0,0,0,0,0,0,0,0,0,0,0,0,0,0,0,0,0,0,0,0,0,0,0,0,0,0,0,0,0,0,0,0,0,0,0,0,0,0,0,0,0,0,0,0,0,0,5.1098,5.1099,0,5.1236,5.1238,5.124,5.1228,5.1225,5.1223,5.1221,5.1359,5.1365,5.137,0,0,0,0,0,0,0,0,0,0,0,0,0,5.0819,5.0824,5.1098,5.1099,5.1101,5.1236,5.1238,5.124,5.1228,5.1225,5.1223,5.122,5.1358,5.1364,5.1371,0,0,0,0,0,0,0,0,0,0,0,0,0,5.0947,5.0826,5.1097,5.1111,5.1114,5.1236,5.1238,5.124,5.1228,5.1225,5.1222,5.1219,5.1355,5.1364,5.1372,5.1487,0,0,5.1398,5.1401,0,0,0,0,0,0,0,0,5.094,5.0957,5.1108,5.1111,5.1114,5.1212,5.119,5.1323,5.1229,5.1185,5.1221,5.1218,5.1313,5.1324,5.1357,5.1494,5.15,5.1399,5.1404,5.1407,5.141,0,0,0,0,0,0,0,5.0931,5.0951,5.1152,5.111,5.1114,5.111,5.1124,5.1215,5.1265,5.1189,5.1188,5.1205,5.1314,5.1349,5.136,5.1502,5.1398,5.1406,5.1411,5.1414,5.1741,5.1744,0,0,0,0,0,0,5.0919,5.0944,5.1148,5.1157,5.1017,5.1117,5.1134,5.1183,5.1264,5.1273,5.1207,5.1204,5.1336,5.135,5.1365,5.1507,5.1407,5.1415,5.142,5.1737,5.1741,5.1745,0,0,0,0,0,0,5.0913,5.0938,5.1142,5.105,5.1076,5.1126,5.1181,5.1188,5.1223,5.1278,5.1286,5.1235,5.1334,5.1353,5.1457,5.1511,5.1419,5.1427,5.1733,5.1738,5.1743,5.179,0,0,0,0,0,0,5.0905,5.0935,5.0981,5.1051,5.1081,5.1234,5.1185,5.1193,5.1238,5.1235,5.1306,5.1315,5.1333,5.1445,5.1466,5.1521,5.1433,5.1728,5.1735,5.1742,5.1783,5.1796,5.1806,0,0,0,0,0,5.0895,5.0987,5.0983,5.1008,5.1139,5.1237,5.1254,5.1274,5.1243,5.1288,5.1323,5.1312,5.1502,5.1456,5.1479,5.1538,5.1725,5.1733,5.1741,5.1778,5.1793,5.1806,0,0,0,0,0,0,5.092,5.0996,5.0993,5.111,5.1167,5.1235,5.1293,5.129,5.1356,5.135,5.1371,5.1387,5.1493,5.1525,5.1473,5.1654,5.1609,5.1622,5.1629,5.1644,5.1655,5.1645,5.144,0,0,0,0,0,5.0939,5.1014,5.1076,5.1173,5.1202,5.1243,5.1286,5.1297,5.1357,5.138,5.1423,5.148,5.1553,5.16,5.1669,5.1788,5.1803,5.1839,5.1851,5.186,5.1871,5.1937,5.1954,5.1772,5.1772,5.1772,0,0,5.0979,5.103,5.1076,5.118,5.1225,5.1301,5.1263,5.1345,5.1401,5.1392,5.1494,5.1528,5.1592,5.1705,5.1756,5.1735,5.1925,5.187,5.1877,5.1884,5.1947,5.1965,5.198,5.1777,5.1776,5.1776,0,0,5.1091,5.1137,5.1224,5.1271,5.1341,5.1367,5.1388,5.1457,5.1479,5.1582,5.1577,5.1643,5.1768,5.1815,5.1855,5.1985,5.1978,5.2007,5.2067,5.2131,5.2146,5.2159,5.2206,5.2223,5.2018,5.2018,5.2018,0,5.1132,5.1248,5.1269,5.1352,5.1398,5.1395,5.1483,5.1527,5.1615,5.1647,5.1622,5.1779,5.1822,5.1946,5.1978,5.201,5.2034,5.2,5.2142,5.2155,5.2168,5.2213,5.2231,5.2021,5.2021,5.2021,5.202,0,5.1295,5.1375,5.1436,5.1524,5.1577,5.1662,5.1695,5.1746,5.1752,5.1781,5.1886,5.1938,5.2018,5.2048,5.2054,5.2173,5.2158,5.2138,5.2093,5.2188,5.2231,5.2249,5.2026,5.2025,5.2024,5.2023,0,0,5.1427,5.1526,5.1548,5.1588,5.1665,5.1727,5.1812,5.1892,5.1936,5.1996,5.2068,5.2173,5.2155,5.2201,5.2212,5.2268,5.237,5.2241,5.2243,5.2264,5.2505,5.2521,5.2541,5.2365,5.2369,5.2371,5.25,0,5.1548,5.17,5.1721,5.1855,5.193,5.1928,5.2001,5.2056,5.2085,5.2152,5.2183,5.2258,5.2228,5.2256,5.2311,5.2346,5.2419,5.2337,5.2432,5.2435,5.2417,5.2563,5.258,5.2699,5.2517,5.252,5.2522,0,5.1709,5.1777,5.1919,5.1987,5.2019,5.2085,5.2161,5.2224,5.2286,5.2303,5.2355,5.236,5.2446,5.2398,5.2518,5.2462,5.2501,5.2524,5.253,5.254,5.2485,5.2579,5.2737,5.2756,5.2548,5.2546,5.2544,0,5.1793,5.1919,5.202,5.2054,5.2136,5.2183,5.2218,5.2277,5.2325,5.239,5.2421,5.2495,5.2536,5.2593,5.2618,5.258,5.2737,5.2689,5.2753,5.2753,5.2787,5.2785,5.2956,5.2811,5.2811,5.281,5.281,0,5.1926,5.2013,5.2059,5.2122,5.2219,5.2242,5.2338,5.2372,5.2424,5.2493,5.2495,5.2559,5.2587,5.2655,5.2674,5.2771,5.2789,5.2805,5.281,5.2806,5.2804,5.2833,5.2826,5.2815,5.2814,5.2813,5.2812,0,5.2036,5.2071,5.2181,5.225,5.2269,5.2338,5.2396,5.2456,5.2485,5.2571,5.2593,5.2637,5.2718,5.2748,5.2845,5.2858,5.2971,5.2968,5.2951,5.2952,5.3015,5.3009,5.3211,5.3239,5.3075,5.3076,5.3077,0,5.212,5.2187,5.2264,5.2311,5.2349,5.2424,5.2472,5.2498,5.2548,5.2624,5.2676,5.2756,5.2822,5.295,5.299,5.3065,5.3064,5.313,5.3075,5.307,5.3067,5.3063,5.307,5.314,5.3142,5.3143,5.3144,0,5.2265,5.2279,5.235,5.2428,5.2486,5.2548,5.2607,5.2645,5.2679,5.2736,5.2819,5.287,5.2971,5.3051,5.3127,5.3163,5.316,5.3161,5.318,5.3178,5.3166,5.3175,5.298,5.3157,5.3156,5.3155,5.3154,5.3153,5.2366,5.2426,5.249,5.2569,5.2617,5.2673,5.2733,5.277,5.284,5.2925,5.2935,5.3025,5.3085,5.3188,5.3227,5.3297,5.3279,5.3306,5.3313,5.332,5.3325,5.3154,5.3311,5.331,5.331,5.331,5.331,0,5.2512,5.2553,5.2626,5.271,5.2773,5.2765,5.2831,5.2883,5.2963,5.302,5.3085,5.3181,5.3259,5.3305,5.3383,5.343,5.3431,5.345,5.3447,5.3456,5.3336,5.3313,5.3448,5.3448,5.3448,5.3448,5.3448,5.3448,5.2596,5.2698,5.2719,5.2844,5.2884,5.2974,5.3012,5.3064,5.311,5.3217,5.3283,5.3313,5.3366,5.3448,5.3519,5.353,5.3559,5.358,5.3591,5.3478,5.3464,5.345,5.3428,5.3586,5.3586,5.3705,5.3706,5.3706]}]]